Chillicothe, MO

9:05 PM CST on December 13, 2019 (GMT -0600)
Chillicothe

Weather History for KCDJ - October, 2019

Change the Weather History Date:

Tuesday, October 29, 2019

  Actual Average (WUND) Record (WUND)
Temperature  
Mean Temperature 34 °F -  
Max Temperature 36 °F - - (-1)
Min Temperature 33 °F - - (-1)
Degree Days  
Heating Degree Days 30    
Moisture  
Dew Point 30 °F    
Average Humidity 86    
Maximum Humidity 96    
Minimum Humidity 78    
Precipitation  
Precipitation 0.00 in - - ()
Sea Level Pressure  
Sea Level Pressure 30.31 in    
Wind  
Wind Speed 4 mph (NNE)    
Max Wind Speed 6 mph    
Max Gust Speed -    
Averages and records for this station are not official NWS values.
T = Trace of Precipitation, MM = Missing Value Source: NWS Daily Summary

Daily Weather History Graph

Daily Weather History Graph

Search for Another Location

Airport or City:

Astronomy

Oct. 29, 2019 Rise Set
Actual Time 7:39 AM CDT 6:15 PM CDT
Civil Twilight 7:11 AM CDT 6:43 PM CDT
Nautical Twilight 6:39 AM CDT 7:15 PM CDT
Astronomical Twilight 6:08 AM CDT 7:46 PM CDT
Moon 9:13 AM CDT (10/29) 7:41 PM CDT (10/29)
Length of Visible Light 11h 32m
Length of Day
10h 36m
Waxing Crescent, 3% of the Moon is Illuminated
Oct 29
Waxing Crescent
Nov 4
First Quarter
Nov 12
Full
Nov 19
Last Quarter
Nov 26
New

Hourly Weather History & Observations

Time (CDT) Temp. Windchill Dew Point Humidity Pressure Visibility Wind Dir Wind Speed Gust Speed Precip Events Conditions
12:52 AM 33.1 °F 27.7 °F 32.0 °F 96% 30.20 in - Variable 5.8 mph - N/A   Unknown
2:52 AM 33.1 °F - 32.0 °F 96% 30.22 in - Calm Calm - N/A   Unknown
3:52 AM 33.1 °F 30.0 °F 30.9 °F 92% 30.25 in - NNW 3.5 mph - N/A   Unknown
4:52 AM 33.1 °F 30.0 °F 30.0 °F 89% 30.25 in - NNW 3.5 mph - N/A   Unknown
5:52 AM 33.1 °F 28.7 °F 30.9 °F 92% 30.27 in - North 4.6 mph - N/A   Unknown
6:52 AM 33.1 °F 28.7 °F 30.0 °F 89% 30.28 in - Variable 4.6 mph - N/A   Unknown
7:52 AM 33.1 °F 30.0 °F 30.0 °F 89% 30.31 in - North 3.5 mph - N/A   Unknown
9:52 AM 33.1 °F 27.7 °F 28.0 °F 82% 30.36 in - NNE 5.8 mph - N/A   Unknown
10:52 AM 33.1 °F 27.7 °F 28.0 °F 82% 30.37 in - Variable 5.8 mph - N/A   Unknown
12:52 PM 34.0 °F 31.0 °F 30.0 °F 85% 30.35 in - NNE 3.5 mph - N/A   Unknown
1:52 PM 34.0 °F 28.8 °F 30.0 °F 85% 30.33 in - North 5.8 mph - N/A   Unknown
2:52 PM 35.1 °F 31.0 °F 28.9 °F 78% 30.35 in - NE 4.6 mph - N/A   Unknown
5:52 PM 35.1 °F 31.0 °F 28.9 °F 78% 30.32 in - ENE 4.6 mph - N/A   Unknown
6:52 PM 35.1 °F 30.1 °F 30.0 °F 82% 30.32 in - NNE 5.8 mph - N/A   Unknown
7:52 PM 35.1 °F - 30.9 °F 85% 30.33 in - Calm Calm - N/A   Unknown
8:52 PM 35.1 °F 32.2 °F 30.9 °F 85% 30.34 in - NNE 3.5 mph - N/A   Unknown
9:52 PM 36.0 °F - 30.9 °F 82% 30.35 in - Calm Calm - N/A   Unknown
10:52 PM 36.0 °F - 32.0 °F 86% 30.35 in - Calm Calm - N/A   Unknown
11:52 PM 36.0 °F 33.3 °F 32.0 °F 86% 30.34 in - North 3.5 mph - N/A   Unknown